STARLINK-1274, 45387

Orbit data source: Space-Track

STARLINK-1274, 45387 is a payload satellite owned by SpaceX/Seattle (US) in LEO that was launched on Wed, 18 Mar 2020 UTC via an FALCON 9 launch vehicle from the Air Force Eastern Test Range (AFETR). Payload-class satellites include a variety of spacecraft equipped with specific instruments for various scientific and technological missions. These include communications satellites like Starlink; space stations such as the ISS; scientific satellites like the Hubble; Earth observation satellites from companies like Planet Labs, Umbra, and HawkEye 360; GPS; miniature CubeSats for education and research; and military/defense satellites.

Loading next visibility...
Identifier
45387, 2020-019AD
Orbit
LEO
Last TLE update
17 hours ago
Origin
Manufacturer
SpaceX/Seattle
Mission
Operational Commercial Communications
Bus & Motor
STARLINK, Unknown motor
Mass
260 kg wet, ~248 kg dry
Launch date (UTC)
2020-03-18 (5 years ago)
Launch vehicle
FALCON 9
Launch site
Air Force Eastern Test Range (AFETR)
Object type
Payload
Rocket body
Debris
Shape & HBR
Box + 1 Pan, 8.86 m
Radar Cross Section
13.562 m², Large (>1 m²)

Expand to show TLE details & history

TLE from 17 hours ago
0 STARLINK-1274
1 45387U 20019AD  25128.56815643  .00000816  00000-0  73644-4 0  9998
2 45387  53.0549  76.3578 0001451  89.5245 270.5911 15.06396995284018
Epoch: 2025-05-08T13:38Z
Definitive object data (Epoch: 2025-05-08T13:38:08.715Z)
Latitude
0.00003°
Longitude
5.18473°
Altitude
548.09 km
Speed
7.589 km/s
True Right ascension
05h 05m 25s
True Declination
0° 00' 00"
Sunlit
Object was in daylight at TLE epoch
Visualization TLE readout
Latitude
-52.18688°
Longitude
-72.55915°
Altitude
566.322 km
Speed
7.577 km/s
Apparent Right ascension
01h 32m 09s
Apparent Declination
-48° 26' 06"
Sunlit
Object is in daylight
Visualization observer readout
Local Sidereal Time
14:56:34
Azimuth
126.487° SE
Elevation
-72.715°
Doppler factor
1
Orbital elements
Apogee altitude
548.496 km
Perigee altitude
546.487 km
Semi-major axis
6,925.628 km
Eccentricity
0.0001451
Inclination
53.0549°
RAAN
76.3578°
Arg. of periapsis
89.5245°
True anomaly
270.57447°
Mean anomaly
270.5911°
Eccentric anomaly
270.58279°
Mean motion
3.76578 °/min
BSTAR
0.000073644
Orbital period
95.6 mins
Loading maneuver chart data...
Loading SW <> Apogee altitude chart data...
Loading historical data...
Loading historical data...
Loading historical data...
Loading historical data...
Loading historical data...
Loading historical data...
Loading historical data...

STARLINK-1274 Visibility forecast

Observer location: undefined°, undefined°

Span
Click to sort rows by Start time (UTC) header in descending order
Start Az.
Max El. time (UTC)
Max El. Az.
Max El.
End time (UTC)
End Az.
6 mins2025-05-09 23:16:40.490Z242.548° WSW2025-05-09 23:19:40.490Z7.072° NNE41.193°2025-05-09 23:22:40.490Z44.996° NE
4 mins2025-05-10 00:57:40.490Z311.709° NW2025-05-10 00:59:40.490Z348.294° N17.499°2025-05-10 01:01:40.490Z20.707° NNE
5 mins2025-05-10 04:18:40.490Z341.073° N2025-05-10 04:20:40.490Z19.191° NNE22.17°2025-05-10 04:23:40.490Z74.503° E
6 mins2025-05-10 05:58:40.490Z299.683° NW2025-05-10 06:00:40.490Z229.635° WSW43.1°2025-05-10 06:04:40.490Z139.785° SSE
|